GW0115 Weather Reports


Display with metric or nautical units.
time (UTC)temp
F
wind
direction
speed
MPH
gust
MPH
rain 1hr
in
rain 24hr
in
rain mn
in
humidity
%
barometer
mb
20260904061603 64 0 0.0 0.0 0.00 0.00 0.00 91 1010.9
20260904060103 64 0 0.0 0.0 0.00 0.00 0.00 89 1010.9
20260904054604 65 0 0.0 0.0 0.00 0.00 0.00 87 1010.8
20260904053105 66 0 0.0 0.0 0.00 0.00 0.00 85 1010.8
20260904051558 65 0 0.0 0.0 0.00 0.00 0.00 86 1010.9
20260904050137 65 0 0.0 0.0 0.00 0.00 0.00 86 1011.2
20260904044603 64 0 0.0 1.0 0.00 0.00 0.00 90 1011.3
20260904043103 63 0 0.0 0.0 0.00 0.00 0.00 91 1011.3
20260904041552 64 0 0.0 0.0 0.00 0.00 0.00 90 1011.4
20260904040106 64 0 0.0 0.0 0.00 0.00 0.00 90 1011.3
20260904034606 64 0 0.0 0.0 0.00 0.00 0.00 90 1011.4
20260904033055 65 0 0.0 0.0 0.00 0.00 0.00 89 1011.4
20260904031604 65 0 0.0 0.0 0.00 0.00 0.00 88 1011.6
20260904024606 66 0 0.0 0.0 0.00 0.00 0.00 87 1011.7
20260904023055 66 0 0.0 0.0 0.00 0.00 0.00 85 1011.7
20260904021559 67 0 0.0 0.0 0.00 0.00 0.00 84 1011.7
20260904020101 68 0 0.0 0.0 0.00 0.00 0.00 82 1011.7
20260904014611 69 0 0.0 0.0 0.00 0.00 0.00 78 1011.8
20260904013057 70 0 0.0 3.0 0.00 0.00 0.00 76 1011.6
20260904011609 71 0 0.0 3.0 0.00 0.00 0.00 75 1011.4
20260904010057 72 267 0.0 4.0 0.00 0.00 0.00 73 1011.3
20260904004602 74 0 0.0 8.0 0.00 0.00 0.00 70 1011.5
20260904003100 74 255 1.0 6.0 0.00 0.00 0.00 67 1011.4
20260904001554 74 0 0.0 0.0 0.00 0.00 0.00 69 1011.4
20260904000101 73 0 0.0 2.0 0.00 0.00 0.00 70 1011.1
20260903234558 70 0 0.0 0.0 0.00 0.00 0.00 76 1010.9
20260903233056 69 0 0.0 0.0 0.00 0.00 0.00 85 1010.7
20260903231612 70 0 0.0 0.0 0.00 0.00 0.00 85 1010.7
20260903230111 70 0 0.0 0.0 0.00 0.00 0.00 85 1010.8
20260903224602 70 0 0.0 0.0 0.00 0.00 0.00 83 1011.0
20260903223112 71 0 0.0 0.0 0.00 0.00 0.00 81 1010.9
20260903221603 72 0 0.0 0.0 0.00 0.00 0.00 77 1011.0
20260903220108 74 0 0.0 0.0 0.00 0.00 0.00 74 1010.6
20260903214611 75 0 0.0 1.0 0.00 0.00 0.00 69 1010.8
20260903213056 75 0 0.0 0.0 0.00 0.00 0.00 74 1010.9
20260903211615 76 0 0.0 0.0 0.00 0.00 0.00 75 1011.0
20260903210056 77 0 0.0 0.0 0.00 0.00 0.00 70 1011.3
20260903204603 79 0 0.0 0.0 0.00 0.00 0.00 74 1010.7
20260903203057 78 0 0.0 1.0 0.00 0.00 0.00 73 1010.8
20260903201557 78 0 0.0 0.0 0.00 0.00 0.00 79 1010.6
20260903200109 79 0 0.0 0.0 0.00 0.00 0.00 79 1010.5
20260903194559 79 0 0.0 0.0 0.00 0.00 0.00 78 1010.6
20260903193101 78 0 0.0 4.0 0.00 0.00 0.00 78 1010.7
20260903191601 78 0 0.0 0.0 0.00 0.00 0.00 79 1010.9
20260903190103 77 0 0.0 0.0 0.00 0.00 0.00 80 1010.9
20260903184603 76 0 0.0 0.0 0.00 0.00 0.00 81 1011.0
20260903183118 76 0 0.0 0.0 0.00 0.00 0.00 83 1011.3
20260903181610 76 0 0.0 0.0 0.00 0.00 0.00 82 1011.4
20260903180054 75 0 0.0 0.0 0.00 0.00 0.00 83 1011.6
20260903174602 75 0 0.0 0.0 0.00 0.00 0.00 84 1011.6
20260903173107 75 0 0.0 0.0 0.00 0.00 0.00 85 1011.8
20260903171607 74 0 0.0 0.0 0.00 0.00 0.00 86 1011.9
20260903170057 74 0 0.0 0.0 0.00 0.00 0.00 85 1012.0
20260903164557 73 0 0.0 0.0 0.00 0.00 0.00 87 1012.0
20260903163052 72 0 0.0 0.0 0.00 0.00 0.00 88 1012.3
20260903161616 71 0 0.0 0.0 0.00 0.00 0.00 88 1012.4
20260903160055 71 0 0.0 0.0 0.00 0.00 0.00 89 1012.7
20260903154605 71 0 0.0 0.0 0.00 0.00 0.00 89 1012.8
20260903153059 70 0 0.0 0.0 0.00 0.00 0.00 89 1012.9
20260903151609 71 0 0.0 0.0 0.00 0.00 0.00 88 1013.1
20260903150105 71 0 0.0 0.0 0.00 0.00 0.00 87 1013.0
20260903144600 71 0 0.0 0.0 0.00 0.00 0.00 86 1013.0
20260903143055 71 0 0.0 0.0 0.00 0.00 0.00 87 1013.0
20260903141555 71 0 0.0 0.0 0.00 0.00 0.00 89 1013.0
20260903140106 70 0 0.0 0.0 0.00 0.00 0.00 90 1013.2
20260903134609 69 0 0.0 0.0 0.00 0.00 0.00 90 1013.1
20260903133100 69 0 0.0 0.0 0.00 0.00 0.00 90 1013.2
20260903131602 69 0 0.0 0.0 0.00 0.00 0.00 90 1013.2
20260903130054 68 0 0.0 0.0 0.00 0.00 0.00 90 1013.1
20260903124604 68 0 0.0 0.0 0.00 0.00 0.00 91 1013.2
20260903123058 68 0 0.0 0.0 0.00 0.00 0.00 91 1013.2
20260903121559 68 0 0.0 0.0 0.00 0.00 0.00 90 1013.1
20260903120056 68 0 0.0 0.0 0.00 0.00 0.00 90 1013.1
20260903114556 68 0 0.0 0.0 0.00 0.00 0.00 91 1013.4
20260903113056 67 0 0.0 0.0 0.00 0.00 0.00 91 1013.3
20260903111554 67 0 0.0 0.0 0.00 0.00 0.00 92 1013.3
20260903110059 67 0 0.0 0.0 0.00 0.00 0.00 91 1013.3
20260903104601 66 0 0.0 0.0 0.00 0.00 0.00 91 1013.3
20260903103059 66 0 0.0 0.0 0.00 0.00 0.00 91 1013.3
20260903101557 66 0 0.0 5.0 0.00 0.00 0.00 91 1013.3
20260903100056 66 0 0.0 1.0 0.00 0.00 0.00 91 1013.2
20260903094608 66 0 0.0 0.0 0.00 0.00 0.00 91 1013.2
20260903093054 66 0 0.0 0.0 0.00 0.00 0.00 90 1013.0
20260903091603 66 0 0.0 1.0 0.00 0.00 0.00 90 1013.1
20260903090100 66 0 0.0 4.0 0.00 0.00 0.00 89 1013.4
20260903084600 66 0 0.0 6.0 0.00 0.00 0.00 89 1013.2
20260903083104 66 0 0.0 4.0 0.00 0.00 0.00 90 1013.3
20260903081555 66 0 0.0 3.0 0.00 0.00 0.00 90 1013.5
20260903080059 66 0 0.0 5.0 0.00 0.00 0.00 90 1013.5
20260903074557 66 0 0.0 7.0 0.00 0.00 0.00 90 1013.8
20260903073112 66 0 0.0 4.0 0.00 0.00 0.00 90 1013.7
20260903071602 65 0 0.0 3.0 0.00 0.00 0.00 90 1013.6
20260903070103 66 0 0.0 4.0 0.00 0.00 0.00 90 1013.6
20260903064558 66 0 0.0 0.0 0.00 0.00 0.00 89 1013.7
20260903063104 66 0 0.0 7.0 0.00 0.00 0.00 87 1013.9